Regional Weather Roundup
Issued by NWS

Home | Current Version | Previous Version | Graphics & Text | Print | Product List | Glossary On
Versions: 1 2 3 4 5 6 7 8 9 10 11 12 13 14 15 16 17 18 19 20 21 22 23 24 25 26 27 28 29 30 31 32 33 34 35 36 37 38 39 40 41 42 43 44 45 46 47 48 49 50
000
ASUS43 KBIS 271202
RWRND

NORTH DAKOTA REGIONAL WEATHER ROUNDUP
NATIONAL WEATHER SERVICE BISMARCK ND
700 AM CDT FRI MAY 27 2016

NOTE: "FAIR" INDICATES FEW OR NO CLOUDS BELOW 12,000 FEET WITH NO
SIGNIFICANT WEATHER AND/OR OBSTRUCTIONS TO VISIBILITY.


NDZ001>003-009>011-017-271300-
NORTHWEST NORTH DAKOTA

CITY           SKY/WX    TMP DP  RH WIND       PRES   REMARKS
WILLISTON      CLOUDY    50  48  93 CALM      29.88S
6HR MIN TEMP:  46; 6HR MAX TEMP:  53;

MINOT          CLEAR     56  52  86 W6        29.82F
MINOT AFB      CLOUDY    52  52  98 NW5       29.81F
$$

NDZ018>021-031>035-040>046-271300-
SOUTHWEST NORTH DAKOTA

CITY           SKY/WX    TMP DP  RH WIND       PRES   REMARKS
BISMARCK       FOG       50  50 100 NW7       29.84S VSB 3/4
6HR MIN TEMP:  43; 6HR MAX TEMP:  52;

DICKINSON      CLOUDY    43  41  93 CALM      29.85S
GARRISON         N/A     50  49  96 NW6       29.83S
6HR MIN TEMP:  49; 6HR MAX TEMP:  52;

HETTINGER ARPT CLEAR     36  35  96 W6        29.86F
$$

NDZ004>008-012>016-024-026-027-054-271300-
NORTHEAST NORTH DAKOTA

CITY           SKY/WX    TMP DP  RH WIND       PRES   REMARKS
GRAND FORKS    MOSUNNY   54  52  93 NW7       29.78S
GRND FRKS AFB  SUNNY     52  52 100 CALM      29.79S
DEVILS LAKE    FOG       50  48  93 CALM      29.81S VSB<1/4
$$

NDZ022-023-025-028>030-036>039-047>053-271300-
SOUTHEAST NORTH DAKOTA

CITY           SKY/WX    TMP DP  RH WIND       PRES   REMARKS
FARGO          PTSUNNY   59  54  83 CALM      29.77S
6HR MIN TEMP:  56; 6HR MAX TEMP:  60;

JAMESTOWN      SUNNY     53  51  93 N9        29.78S FOG
$$





USA.gov is the U.S. government's official web portal to all federal, state and local government web resources and services.